This is the latest recevied weather packets stored in our database for station/object KJ5PEC-13. If no packets are shown the sender has not sent any weather packets the latest 10 day(s).
| Time | Temp. | Humidity | Pressure | Rain* | Wind** | Luminosity | Snow |
|---|---|---|---|---|---|---|---|
| 1788572108 | 16.11° C | 52% | 1028.9 hPa | 0 mm | - | 2 W/m² | - |
| 1788571803 | 16.67° C | 58% | 1028.9 hPa | 0 mm | - | 4 W/m² | - |
| 1788571498 | 16.11° C | 46% | 1029.1 hPa | 0 mm | - | 6 W/m² | - |
| 1788571194 | 14.44° C | 64% | 1029 hPa | 0 mm | - | 8 W/m² | - |
| 1788570890 | 15° C | 74% | 1029.1 hPa | 1.78 mm | - | 10 W/m² | - |
| 1788570586 | 13.89° C | 67% | 1029.1 hPa | 1.78 mm | - | 12 W/m² | - |
| 1788570281 | 13.89° C | 87% | 1028.9 hPa | 1.27 mm | - | 15 W/m² | - |
| 1788569976 | 14.44° C | 79% | 1028.9 hPa | 4.32 mm | - | 17 W/m² | - |
| 1788569672 | 16.11° C | 73% | 1029 hPa | 6.1 mm | - | 19 W/m² | - |
| 1788569372 | 20° C | 63% | 1029 hPa | 3.05 mm | - | 25 W/m² | - |
| 1788569067 | 22.22° C | 37% | 1029 hPa | 0 mm | - | 35 W/m² | - |
| 1788568762 | 22.78° C | 31% | 1028.9 hPa | 0 mm | - | 41 W/m² | - |
| 1788568458 | 22.78° C | 29% | 1028.8 hPa | 0 mm | - | 32 W/m² | - |
| 1788568154 | 23.33° C | 28% | 1028.8 hPa | 0 mm | - | 39 W/m² | - |
| 1788567854 | 23.33° C | 27% | 1028.8 hPa | 0 mm | - | 46 W/m² | - |
| 1788567553 | 23.89° C | 27% | 1028.5 hPa | 0 mm | - | 57 W/m² | - |
| 1788567263 | 23.89° C | 27% | 1028.4 hPa | 0 mm | - | 60 W/m² | - |
| 1788566943 | 23.33° C | 28% | 1028.6 hPa | 0 mm | - | 93 W/m² | - |
| 1788566639 | 23.33° C | 27% | 1028.5 hPa | 0 mm | - | 71 W/m² | - |
| 1788566334 | 22.78° C | 28% | 1028.2 hPa | 0 mm | - | 63 W/m² | - |
| 1788566029 | 23.33° C | 27% | 1028.2 hPa | 0 mm | - | 53 W/m² | - |
| 1788565730 | 23.33° C | 27% | 1028.4 hPa | 0 mm | - | 47 W/m² | - |
| 1788565424 | 23.89° C | 28% | 1028.2 hPa | 0 mm | - | 58 W/m² | - |
| 1788565120 | 23.89° C | 27% | 1028.4 hPa | 0 mm | - | 80 W/m² | - |
| 1788564816 | 23.89° C | 27% | 1028.5 hPa | 0 mm | - | 98 W/m² | - |
* Rain latest hour (hover to see other rain measurements)
** Current wind speed in m/s (hover to see current wind gust speed)